HAWK-5C

Last updated on Fri Dec 29 2023 00:03:29 GMT+0000 (Coordinated Universal Time)

1 52754U 22057Y 23361.89480827 .00008192 00000+0 38470-3 0 9994 2 52754 97.5711 118.0158 0009163 38.7160 321.4730 15.19854436 88016
UTC large
Height (km)
Speed (km/s)
/
Latitude / Longitude
Inclination (degrees)
Orbital Period (minutes)
Azimuth
Elevation
Range (km)
Doppler Factor

Next 0 passes for location: London (51.5072 / 0.1276)

Sorry there are no passes over London.
HAWK-5C